Tracking 25953 objects as of 16-Aug-2022
HD Live streaming from Space Station
objects crossing your sky now

STARLINK-4317

Track STARLINK-4317 now!
10-day predictions
STARLINK-4317 is classified as:


NORAD ID: 53058
Int'l Code: 2022-077R
Perigee: 488.0 km
Apogee: 490.5 km
Inclination: 97.7 °
Period: 94.2 minutes
Semi major axis: 6860 km
RCS: Unknown
Launch date: July 11, 2022
Source: United States (US)
Launch site: AIR FORCE WESTERN TEST RANGE (AFWTR)
aabbcc
Your satellite tracking list
Your tracking list is empty




NASA's NSSDC Master Catalog

Two Line Element Set (TLE):
1 53058U 22077R   22227.91667824 -.01224624  00000-0 -48987-1 0  9997
2 53058  97.6555  48.1132 0001837  71.4734 224.4216 15.27900603  1302
Source of the keplerian elements: AFSPC